Regional Weather Roundup
Issued by NWS Wakefield, VA

Home | Current Version | Previous Version | Graphics & Text | Print | Product List | Glossary On
Versions: 1 2 3 4 5 6 7 8 9 10 11 12 13 14 15 16 17 18 19 20 21 22 23 24 25 26 27 28 29 30 31 32 33 34 35 36 37 38 39 40 41 42 43 44 45
000
ASUS41 KAKQ 280315
RWRAKQ

REGIONAL WEATHER ROUNDUP
NATIONAL WEATHER SERVICE WAKEFIELD VA
1100 PM EDT WED MAY 27 2015

Note: "fair" indicates few or no clouds below 12,000 feet with no
significant weather and/or obstructions to visibility. * = Denotes
station may not report precipitation (e.g., rain,snow,etc.),
thunder or fog.

VAZ042-051-052>054-056-280400-
NORTHERN VIRGINIA

CITY           SKY/WX    TMP DP  RH WIND       PRES   REMARKS
WASH NATIONAL  MOCLDY    77  68  73 S3        30.15R
DULLES         PTCLDY    71  68  90 SE5       30.14S
FORT BELVOIR   PTCLDY    72  69  89 CALM      30.14S
QUANTICO       PTCLDY    78  70  76 S3        30.15R
FREDERICKSBRG* PTCLDY    76  70  79 S6        30.14S
STAFFORD*      PTCLDY    70  66  89 CALM      30.19S
WARRENTON      PTCLDY    71  68  89 CALM      30.14F
CULPEPER*      CLEAR     67  66  94 CALM      30.15S
MANASSAS*      CLEAR     72  70  94 SE3       30.14S
LEESBURG*      CLEAR     72  72 100 CALM      30.16R
WINCHESTER     PTCLDY    70  64  83 CALM      30.15R
FRONT ROYAL*   MOCLDY    70  68  94 CALM      30.14R
LURAY*         FAIR      70  68  94 CALM      30.16R
$$

VAZ048-049-060>072-079>083-280400-
CENTRAL AND SOUTH CENTRAL VIRGINIA

CITY           SKY/WX    TMP DP  RH WIND       PRES   REMARKS
RICHMOND       CLOUDY    76  67  73 S15       30.18R
CHESTERFIELD*  NOT AVBL
PETERSBURG*    MOCLDY    75  69  82 S6        30.20S
HANOVER        MOCLDY    78  68  71 S9        30.19R
TAPPAHANNOCK*  MOCLDY    76  64  65 S10       30.18R
QUINTON*       FAIR      75  69  82 S7        30.19R
CHARLOTTSVILLE CLEAR     73  64  73 S6        30.16R
GORDONSVILLE*  FAIR      67  65  93 CALM      30.15S
ORANGE*        CLEAR     68  66  94 CALM      30.17S
LOUISA*        CLEAR     75  66  73 S3        30.16S
BUMPASS*       FAIR      74  66  75 SE3       30.17R
FARMVILLE*     PTCLDY    70  65  85 S5        30.17S
CREWE*         FAIR      75  65  71 S5        30.20R
FORT PICKETT*  FAIR      73  66  78 S9        30.21R
CHASE CITY*    FAIR      75  70  84 S3        30.21R
CLARKSVILLE*   FAIR      70  68  94 S3        30.20R
SOUTH HILL*    CLOUDY    71  67  86 S8        30.27R
LAWRENCEVILLE* FAIR      70  68  94 S5        30.21R
EMPORIA*       FLURRIES  68  68 100 SE3       30.23F
$$

VAZ088>098-280400-
SOUTHEAST VIRGINIA

CITY           SKY/WX    TMP DP  RH WIND       PRES   REMARKS
NORFOLK        PTCLDY    74  64  71 S9        30.22S
VIRGINIA BEACH PTCLDY    74  65  73 S12       30.22R
NORFOLK NAVAL  MOCLDY    79  66  64 S10G20    30.23S
WEST POINT*    CLOUDY    76  68  76 S9        30.21S
SALUDA*        FAIR      73  69  89 S7        30.18S
NEWPORT NEWS   CLOUDY    79  67  66 S15       30.21S
LANGLEY AFB    CLOUDY    75  67  76 S14       30.20F
FORT EUSTIS    CLOUDY    76  69  79 S12G17    30.19R
WILLIAMSBURG*  CLOUDY    75  72  88 SW12G17   30.22R
HR EXEC AP*    MOCLDY    73  64  73 S8        30.25S
FRANKLIN*      CLOUDY    73  69  87 SW6       30.23F
WAKEFIELD      LGT RAIN  71  68  90 S6        30.21F
$$

VAZ020-022-025-037-045-280400-
WEST CENTRAL AND SOUTHWEST VIRGINIA

CITY           SKY/WX    TMP DP  RH WIND       PRES   REMARKS
STAUNTON*      CLEAR     71  64  79 SW6       30.20R
WAYNESBORO*    FAIR      70  62  77 S5        30.20R
HOT SPRINGS VA PTCLDY    65  59  82 S7        30.29S
LYNCHBURG      CLEAR     69  65  86 SW6       30.20S
DANVILLE       CLEAR     71  65  81 S3        30.20R
SOUTH BOSTON*  FAIR      71  65  80 S6        30.20S
MARTINSVILLE   CLEAR     65  65 100 CALM      30.24R
ROANOKE        MOCLDY    71  63  75 W3        30.21R
BLACKSBURG     PTCLDY    67  62  83 CALM      30.28R
DUBLIN*        PTCLDY    66  64  94 CALM      30.26S
MARION*        CLEAR     64  60  87 CALM      30.29S
HILLSVILLE*    CLEAR     66  63  90 S6        30.29R
RICHLANDS*     FAIR      68  58  70 W5        30.27R
WISE*          PTCLDY    66  55  68 SW3       30.28S
ABINGDON*      CLEAR     67  61  81 CALM      30.25R
$$

MDZ021>025-VAZ099-100-280400-
SOUTHERN MARYLAND AND THE DELMARVA PENINSULA

CITY           SKY/WX    TMP DP  RH WIND       PRES   REMARKS
PATUXENT RIVER CLOUDY    76  68  76 S10       30.15S
BAY BRIDGE APT NOT AVBL
LEONARDTOWN    NOT AVBL
DOVER          CLOUDY    73  69  87 S8        30.14F
GEORGETOWN     PTCLDY    71  65  81 S12       30.19S
EASTON         NOT AVBL
CAMBRIDGE      NOT AVBL
SALISBURY      CLEAR     70  64  81 S9        30.18F
OCEAN CITY     CLEAR     68  63  84 S9G21     30.21S
WALLOPS ISLAND CLEAR     67  64  90 S20       30.21F
ACCOMACK*      PTCLDY    72  68  88 S13       30.20S
$$

NCZ012>017-030>032-280400-
NORTH CENTRAL AND EASTERN NORTH CAROLINA

CITY           SKY/WX    TMP DP  RH WIND       PRES   REMARKS
ROANOKE RAPIDS LGT RAIN  70  68  94 SW3       30.23S
RALEIGH        MOCLDY    72  68  87 CALM      30.23R
ELIZABETH CITY CLEAR     72  65  78 S9        30.25R
AHOSKIE*       CLOUDY    73  67  80 CALM      30.23F
EDENTON*       CLOUDY    73  67  82 S9        30.25S
CURRITUCK*     CLEAR     73  62  69 S5        30.25S
KILL DEVIL HLS CLEAR     72  63  73 S7        30.25S
MANTEO         CLEAR     72  63  74 SW13      30.26F
CAPE HATTERAS  CLEAR     72  61  68 SW12      30.27S
TARBORO*       DRIZZLE   73  70  92 CALM      30.24S
GOLDSBORO      MOCLDY    73  68  83 S2        30.21S
WASHINGTON     MOCLDY    73  66  80 S7        30.25S
GREENVILLE     MOCLDY    73  68  83 S8        30.25S
NEW BERN       PTCLDY    71  65  81 S3        30.26F
WILMINGTON     CLEAR     73  65  75 SE6       30.24S
$$

VAZ048-280400-
ELSEWHERE

CITY           SKY/WX    TMP DP  RH WIND       PRES   REMARKS
HARRISBURG PA  PTCLDY    72  67  84 SE6       30.13S
BALTIMORE      MOCLDY    73  68  84 CALM      30.15R
ANNAPOLIS      CLOUDY    73  68  84 S8        30.15S
ANDREWS AFB    PTCLDY    73  69  88 SE3       30.15R
PHILADELPHIA   CLOUDY    74  70  87 S7        30.16S
HENDERSON NC   CLOUDY    70  67  90 S6        30.22R
GREENSBORO     PTCLDY    72  66  81 S5        30.22R
ROCKY MOUNT    CLOUDY    72  70  93 CALM      30.23S
$$

VAZ100-280400-
MARINE

STATION/POSITION TIME  TEMP    WIND        PRES    WAVE   SWELL
                       AIR SEA DIR/SP/G            HT/PER HT/PER
                 (UTC) (F)     (DEG/KT/KT) (MB)    (FT/S) (FT/S)
BRANDYWINE LGT   0200   69 65  200/ 10/ 11 1022.1R
CAPE MAY NJ      0200   67 71  160/ 10/ 16 1021.8R
LEWES DE         0200   72 63  190/  8/ 12 1021.9R
15NM E FENWICK I 0250   66 62              1022.5F   4/ 5
OCEAN-CITY-INLET 0200   64 62  220/ 13/ 14 1022.9R
WACHAPREAGUE VA  0200   72 78  220/ 11/ 16 1023.3R
THOMAS POINT MD  0300   72 69  170/ 16/ 18 1021.2F
GOOSES REEF MD   0300   71 69  170/ 10/ 12 1021.9R   1/ 2
COVE POINT MD    0200   71     200/ 12/ 14 1021.8R
SOLOMONS ISLAND  0200      72                N/A
BISHOPS HEAD MD  0200   75 74  160/ 17/ 20 1021.0R
PINEY POINT MD   0200          190/ 10/ 11   N/A
CAMBRIDGE MD     0200   74 71  160/  4/ 10 1021.4R
LEWISETTA VA     0200   76 72              1021.1R
RAPPAHANNOCK LGT 0200          160/ 17/ 19 1022.9R
STINGRAY PT      0300   77 73  200/ 14/ 19 1022.0R   2/ 3
YORK RVR RNG VA  0206   76     200/ 16/ 19 1021.8R
YORKTOWN VA      0200   76 71  200/ 11/ 15 1022.0R
JAMESTOWN VA     0300   72 76  220/ 14/ 17 1021.7R
DOMINION TERM VA 0200   75     200/ 13/ 15 1023.2R
KIPTOPEKE VA     0200      78  170/ 10/ 12   N/A
CHES BAY BRIDGE  0200   75 72  180/ 18/ 20 1022.7R
CAPE HENRY VA    0200   74     190/ 10/ 14 1021.9R
CHESAPEAKE LGHT  0200   67     190/ 21/ 22 1023.9R
WILLOUBY STN VA  0200   76     190/ 16/ 18 1023.9R
CAPE HENRY BUOY  0228      63                N/A     3/ 5
1ST LANDING BUOY 0300      71              1023.1R
CAPE CHARLES BUO 0226      65                N/A     3/ 4   2/ 7
OFFSHORE WE BUOY 0211      65                N/A     4/ 5   2/ 7
64NM E OF VA BCH 0250   66 64  190/  8/  8 1024.4R   2/ 6   2/ 6
DUCK PIER NC     0200   73 57  200/ 14/ 18 1023.4R
44100 DUCK FRF   0224      64                N/A     2/ 7
44056 DUCK FRF   0211      60                N/A     2/ 4
OREGON INLET NC  0200   74 77  180/ 13/ 17 1024.7R
HATTERAS NC      0200   73 76  180/  6/ 10 1024.4R
DIAMOND SHLS NC  0250   74 77  180/ 12/ 14 1025.0R   3/ 7   2/ 7
CAPE LOOKOUT NC  0300   74     170/  8/  8 1024.4R
$$


USA.gov is the U.S. government's official web portal to all federal, state and local government web resources and services.